Wind_Speed
34 35 35 36 37 37 38 39 39 40 41 42 43 42 42 42 41 41 41 42 43 43 42 41 40 39 39 39 38 36 35 34 33 31 29 28 26 24
35 36 37 37 38 39 39 40 40 41 41 42 43 43 43 42 42 42 42 43 43 44 43 42 40 40 39 39 38 36 34 33 32 31 29 27 26 24
36 37 37 39 39 40 40 41 42 42 42 42 43 44 44 43 43 44 44 44 44 45 44 44 43 42 41 40 39 37 35 34 32 31 29 27 25 24
36 37 37 39 40 41 42 43 43 44 44 44 44 45 46 46 45 44 45 45 44 45 44 44 45 43 42 41 40 39 37 35 33 31 29 27 26 24
36 37 38 39 40 41 42 44 45 45 46 46 46 47 47 47 46 45 46 46 46 45 45 46 46 44 42 42 41 40 38 37 35 33 30 28 26 25
37 38 39 40 41 42 43 44 45 46 47 47 47 48 48 48 48 46 46 47 47 47 47 47 46 45 44 43 42 41 40 39 36 34 32 29 28 26
38 38 39 41 42 43 45 45 46 47 47 48 48 49 49 49 49 48 47 48 48 48 49 48 48 47 46 45 44 43 42 40 38 36 33 31 29 27
37 38 39 41 42 43 45 45 46 46 47 48 49 50 50 50 50 49 48 48 49 49 50 50 49 48 48 47 46 45 43 41 39 37 35 33 31 29
37 38 39 40 40 41 43 44 45 46 47 48 49 50 50 52 50 51 50 50 49 51 52 51 51 50 49 49 48 47 45 43 41 39 37 34 32 30
37 37 38 38 38 39 40 42 44 45 46 48 49 50 51 52 51 51 51 51 51 51 52 52 52 52 50 51 51 49 47 45 43 41 38 36 34 32
35 36 36 36 36 37 38 39 41 44 46 47 49 50 52 52 52 51 51 52 53 52 53 52 52 53 52 52 53 51 49 47 45 43 40 38 36 34
34 34 34 35 35 35 36 37 39 41 44 46 48 50 52 52 53 53 52 52 53 53 52 51 53 55 54 54 54 53 51 49 47 45 42 40 37 35
32 32 33 33 33 34 35 36 37 40 42 45 47 50 52 52 53 54 53 53 53 53 53 53 53 54 55 55 55 54 53 51 49 47 45 42 40 37
30 30 30 30 30 31 32 34 36 39 41 44 46 48 50 52 53 54 54 53 52 53 52 54 55 55 55 55 55 55 53 52 51 48 47 44 42 39
29 28 28 27 28 28 30 31 33 36 39 41 44 47 48 50 52 54 54 55 53 52 52 54 54 56 57 56 55 56 54 53 52 50 48 46 44 41
28 27 26 26 26 27 27 28 30 32 35 39 41 44 47 49 51 53 54 54 55 54 53 53 53 54 56 57 56 56 55 54 53 51 50 48 46 43
26 25 24 23 23 23 24 25 26 29 32 35 38 41 44 46 49 52 52 53 54 54 53 53 53 53 55 55 57 56 55 54 53 52 51 49 47 45
24 23 21 21 21 21 22 23 25 26 29 32 35 38 40 43 46 49 51 52 53 53 52 53 53 53 54 53 54 56 55 53 52 52 51 49 48 46
22 20 19 18 19 18 19 20 22 24 26 30 32 34 37 40 43 45 48 49 51 52 51 51 52 53 53 52 52 54 54 53 52 51 51 50 49 47
20 18 17 16 15 15 16 17 18 21 23 26 28 30 33 36 39 42 43 45 47 49 49 50 51 50 51 51 50 50 52 51 51 51 51 50 49 48
18 16 14 12 11 11 12 14 16 18 20 23 26 28 30 33 35 38 40 42 43 46 47 47 49 49 50 51 50 50 50 49 49 49 49 49 48 47
16 14 12 10 9 9 10 12 15 17 19 22 23 26 28 30 33 35 38 40 41 42 44 45 47 48 48 50 49 48 48 47 47 48 48 47 46 45
14 12 9 8 6 6 7 10 13 16 18 21 23 25 27 28 31 34 36 38 41 42 43 43 44 46 45 47 48 47 47 48 47 47 46 45 44 44
Wind_Direction
272 270 267 265 262 259 255 253 249 246 245 243 241 240 238 236 235 234 232 230 228 227 227 227 227 225 226 227 226 227 227 227 227 228 229 231 233 234
273 270 268 265 262 259 257 254 250 247 244 242 241 239 238 234 233 233 232 230 227 226 226 225 225 225 225 225 224 224 224 224 224 226 228 229 229 230
274 271 268 266 262 259 257 254 251 247 244 242 241 239 237 235 233 231 230 229 229 226 225 223 223 223 224 224 223 222 221 221 222 224 225 224 225 227
275 271 268 266 263 260 257 254 251 248 245 242 240 239 237 236 234 233 231 231 229 225 223 223 222 221 222 222 220 220 219 219 220 221 221 221 222 224
275 272 269 266 263 260 257 254 251 248 245 242 239 238 236 236 234 233 231 230 227 225 223 222 221 220 220 219 218 217 217 217 218 218 218 219 221 222
276 273 270 267 264 260 257 254 251 248 244 242 239 237 235 234 234 232 230 229 226 224 223 221 219 218 218 217 216 216 216 216 216 217 218 219 220 221
278 275 271 268 265 261 257 254 250 247 244 241 238 235 234 232 233 233 231 229 226 224 222 220 218 217 217 216 216 216 216 215 215 216 217 219 220 220
280 278 275 271 267 262 257 253 250 246 243 240 238 235 233 230 230 230 230 229 227 223 221 220 218 218 217 216 215 215 215 215 215 216 217 219 220 221
282 280 277 273 268 262 257 252 249 245 242 240 237 234 233 230 228 228 228 228 226 225 222 219 218 217 217 216 214 215 215 215 216 217 217 218 220 221
285 282 278 275 269 262 256 251 247 244 241 239 236 233 231 230 229 227 227 226 224 224 222 220 219 218 218 216 216 215 215 215 215 216 217 219 220 222
287 284 280 275 269 263 257 251 246 243 240 237 234 232 230 229 228 226 225 225 224 224 224 222 220 219 219 218 216 215 215 215 216 217 218 219 221 222
289 286 281 274 269 263 256 251 246 242 240 237 234 231 229 229 228 227 226 225 224 224 223 222 220 219 219 219 216 215 216 216 217 218 220 220 221 223
292 289 283 276 269 262 255 250 246 243 240 236 233 230 229 228 227 226 225 224 224 223 223 222 222 220 219 218 217 217 217 217 218 219 220 221 223 225
294 291 285 277 269 262 256 251 247 242 238 235 232 230 228 228 227 225 224 223 223 223 222 222 223 221 219 219 218 217 218 218 219 220 221 222 224 225
296 291 286 279 271 264 257 252 248 242 237 234 232 230 228 227 226 224 224 223 222 221 220 220 221 221 219 217 218 217 217 219 220 221 222 223 224 226
299 293 287 279 272 265 259 253 247 241 235 232 231 229 227 226 224 224 223 222 221 221 220 218 217 219 220 218 217 217 217 218 219 221 222 223 224 225
302 296 289 282 275 266 257 250 245 240 235 231 229 227 225 223 222 222 221 220 219 218 217 217 216 217 219 219 218 217 218 218 219 220 221 222 224 226
308 301 292 284 276 267 257 250 243 237 232 228 226 224 223 220 219 219 219 219 218 217 216 215 215 216 218 219 218 216 217 218 218 220 220 222 224 226
312 306 297 288 278 266 255 247 239 233 228 223 221 220 219 217 215 216 218 218 216 216 216 216 216 215 216 217 217 217 217 218 219 220 221 222 224 226
317 313 304 293 279 265 251 242 234 228 223 218 216 216 215 214 213 214 215 217 216 215 216 217 216 216 216 216 216 216 215 217 218 220 221 223 225 226
321 319 311 297 280 264 247 235 227 221 216 212 210 211 211 210 210 211 212 213 213 214 215 216 216 216 215 215 215 215 215 216 216 219 221 223 224 226
324 323 318 307 288 264 244 232 220 213 209 207 206 206 207 208 208 208 209 210 210 210 212 214 216 215 214 213 215 215 216 216 216 217 220 222 224 225
325 323 323 318 298 257 230 220 210 205 204 203 204 204 205 206 205 205 207 208 208 208 209 211 213 214 214 212 212 214 216 217 216 217 220 223 224 225
Height
5758 5758 5758 5758 5759 5760 5762 5764 5767 5769 5772 5775 5778 5782 5785 5789 5794 5798 5802 5807 5813 5819 5824 5830 5835 5840 5845 5851 5856 5861 5865 5870 5874 5878 5881 5884 5887 5890
5747 5747 5747 5747 5748 5749 5751 5753 5755 5758 5762 5764 5768 5771 5775 5779 5784 5788 5793 5798 5803 5809 5815 5821 5827 5832 5838 5844 5849 5854 5859 5863 5868 5872 5876 5879 5882 5885
5736 5736 5736 5736 5736 5737 5739 5741 5744 5747 5750 5754 5757 5761 5765 5769 5774 5779 5784 5789 5794 5800 5806 5812 5819 5825 5830 5836 5842 5847 5852 5857 5861 5866 5870 5874 5877 5880
5724 5724 5724 5723 5724 5725 5727 5729 5731 5735 5738 5742 5746 5750 5755 5759 5764 5769 5774 5780 5785 5791 5797 5803 5810 5816 5822 5828 5834 5840 5845 5850 5855 5860 5864 5868 5872 5875
5712 5711 5711 5711 5711 5712 5713 5716 5718 5722 5725 5730 5734 5738 5743 5748 5753 5759 5764 5770 5775 5781 5787 5793 5800 5807 5814 5820 5826 5832 5838 5844 5849 5854 5858 5863 5867 5870
5699 5698 5698 5698 5698 5699 5700 5702 5705 5708 5712 5716 5722 5726 5732 5737 5742 5748 5754 5759 5765 5772 5778 5784 5791 5798 5805 5812 5818 5825 5831 5837 5843 5848 5852 5857 5861 5865
5686 5685 5684 5683 5684 5684 5686 5688 5691 5694 5698 5703 5708 5714 5719 5725 5731 5736 5743 5749 5755 5761 5768 5775 5782 5789 5795 5803 5810 5817 5823 5830 5836 5841 5847 5851 5855 5859
5673 5671 5669 5669 5669 5669 5670 5673 5676 5680 5684 5689 5695 5701 5707 5713 5719 5725 5731 5738 5745 5752 5758 5765 5772 5779 5787 5794 5801 5809 5816 5822 5829 5835 5840 5845 5850 5854
5659 5657 5655 5654 5654 5654 5655 5657 5661 5665 5670 5675 5681 5687 5694 5701 5707 5714 5720 5726 5734 5740 5748 5754 5761 5769 5777 5785 5792 5800 5808 5815 5821 5827 5833 5838 5843 5848
5646 5643 5641 5639 5639 5639 5640 5643 5647 5651 5656 5661 5668 5674 5680 5687 5694 5701 5707 5715 5722 5729 5736 5744 5751 5759 5767 5776 5783 5791 5799 5807 5813 5820 5826 5831 5837 5841
5633 5630 5628 5626 5625 5625 5626 5629 5632 5636 5641 5647 5653 5660 5666 5674 5681 5688 5696 5703 5711 5718 5726 5733 5741 5749 5757 5765 5774 5782 5790 5798 5805 5812 5818 5824 5830 5835
5621 5618 5615 5613 5612 5612 5613 5616 5619 5623 5627 5633 5639 5646 5653 5661 5668 5676 5683 5691 5699 5707 5715 5722 5730 5738 5746 5755 5764 5772 5781 5789 5797 5804 5810 5816 5822 5828
5609 5606 5602 5600 5599 5599 5601 5603 5606 5609 5614 5619 5626 5633 5640 5648 5655 5663 5672 5679 5688 5696 5705 5712 5720 5728 5737 5746 5754 5763 5772 5780 5788 5795 5802 5808 5815 5820
5598 5594 5591 5589 5588 5588 5589 5591 5593 5596 5601 5606 5613 5620 5627 5635 5643 5652 5660 5668 5676 5684 5692 5701 5709 5718 5727 5736 5744 5753 5762 5770 5778 5786 5793 5800 5806 5812
5588 5584 5581 5579 5577 5577 5578 5579 5581 5584 5589 5594 5601 5608 5615 5623 5631 5639 5647 5655 5664 5672 5680 5689 5699 5707 5715 5724 5734 5743 5752 5760 5769 5777 5784 5791 5798 5804
5578 5575 5572 5569 5568 5567 5567 5568 5570 5573 5578 5583 5589 5595 5603 5610 5618 5627 5635 5644 5652 5661 5670 5679 5688 5697 5705 5714 5723 5733 5742 5750 5759 5767 5774 5782 5789 5795
5569 5566 5563 5560 5559 5558 5559 5560 5562 5564 5568 5573 5579 5585 5591 5599 5607 5615 5624 5632 5641 5651 5660 5669 5678 5686 5694 5703 5713 5722 5732 5741 5749 5757 5765 5772 5779 5786
5562 5558 5555 5552 5551 5550 5551 5552 5554 5556 5560 5564 5569 5575 5582 5589 5597 5605 5613 5622 5631 5640 5649 5658 5667 5676 5686 5694 5703 5713 5722 5731 5739 5747 5755 5763 5770 5777
5555 5551 5548 5546 5544 5543 5543 5545 5546 5549 5552 5557 5562 5567 5573 5581 5588 5596 5604 5613 5622 5631 5640 5649 5658 5667 5677 5686 5695 5704 5713 5722 5730 5738 5746 5754 5761 5768
5550 5546 5543 5540 5538 5537 5538 5539 5541 5543 5547 5551 5556 5561 5567 5574 5581 5589 5597 5605 5614 5623 5631 5640 5650 5659 5669 5678 5687 5695 5704 5712 5721 5729 5736 5743 5751 5758
5546 5542 5539 5536 5534 5534 5534 5535 5537 5539 5543 5546 5551 5556 5562 5568 5575 5583 5590 5598 5607 5615 5624 5632 5642 5650 5659 5668 5677 5686 5695 5703 5711 5720 5727 5735 5742 5748
5543 5540 5536 5534 5532 5531 5531 5532 5533 5536 5539 5543 5548 5553 5558 5564 5570 5578 5585 5593 5601 5609 5617 5625 5633 5642 5652 5661 5670 5678 5687 5695 5703 5710 5718 5726 5733 5740
5541 5537 5535 5532 5530 5528 5529 5529 5531 5534 5537 5541 5545 5550 5555 5560 5566 5573 5580 5587 5594 5602 5611 5619 5627 5636 5644 5653 5662 5671 5679 5687 5695 5702 5710 5717 5725 5731